ANZ142 YSSY-NZAA

Flight info

Callsign ANZ142
Flight time 2h 42m
Altitude 39000
Route GROOK1/16R 3357S15111E EVONN L521 LUNBI
Aircraft B78X/H-SDE1E2E3FGHIJ2J3J4J5M1RWXY/LB1D1

Departure

Time 2026-04-22 07:01
Airport Sydney Kingsford Smith International Airport (YSSY)

Arrival

Time 2026-04-22 09:44
Airport Auckland International Airport (NZAA)
Time Latitude Longitude Altitude Speed Heading
2026-04-22 06:50 -33.93907 151.16449 27 ft 0 kts 149°
2026-04-22 06:53 -33.93897 151.16442 27 ft 3 kts 119°
2026-04-22 06:54 -33.93890 151.16421 26 ft 2 kts 134°
2026-04-22 06:54 -33.93885 151.16410 25 ft 2 kts 186°
2026-04-22 06:54 -33.93898 151.16396 27 ft 3 kts 222°
2026-04-22 06:54 -33.93909 151.16380 27 ft 2 kts 230°
2026-04-22 06:55 -33.93917 151.16370 27 ft 2 kts 230°
2026-04-22 06:55 -33.93924 151.16360 27 ft 2 kts 228°
2026-04-22 06:55 -33.93926 151.16357 27 ft 0 kts 227°
2026-04-22 06:56 -33.93973 151.16308 27 ft 15 kts 213°
2026-04-22 06:56 -33.94088 151.16275 27 ft 15 kts 175°
2026-04-22 06:56 -33.94173 151.16323 26 ft 7 kts 116°
2026-04-22 06:57 -33.94176 151.16373 27 ft 9 kts 80°
2026-04-22 06:57 -33.94138 151.16534 27 ft 24 kts 76°
2026-04-22 06:57 -33.94082 151.16711 27 ft 22 kts 77°
2026-04-22 06:57 -33.94042 151.16948 27 ft 32 kts 75°
2026-04-22 06:58 -33.93981 151.17175 28 ft 22 kts 65°
2026-04-22 06:58 -33.93889 151.17201 25 ft 16 kts 349°
2026-04-22 06:58 -33.93685 151.17149 30 ft 41 kts 346°
2026-04-22 06:58 -33.93413 151.17083 30 ft 39 kts 345°
2026-04-22 06:59 -33.93190 151.16938 27 ft 32 kts 347°
2026-04-22 06:59 -33.93001 151.16936 27 ft 18 kts 38°
2026-04-22 06:59 -33.92978 151.16988 29 ft 0 kts 74°
2026-04-22 07:00 -33.92977 151.16988 29 ft 1 kts 75°
2026-04-22 07:00 -33.92968 151.17113 28 ft 22 kts 105°
2026-04-22 07:00 -33.93144 151.17218 27 ft 54 kts 168°
2026-04-22 07:00 -33.93786 151.17382 25 ft 132 kts 168°
2026-04-22 07:01 -33.94826 151.17666 545 ft 152 kts 161°
2026-04-22 07:01 -33.96015 151.17962 850 ft 198 kts 174°
2026-04-22 07:01 -33.97456 151.17535 1068 ft 223 kts 195°
2026-04-22 07:01 -33.98981 151.17121 2001 ft 224 kts 186°
2026-04-22 07:02 -34.00539 151.16993 3106 ft 226 kts 178°
2026-04-22 07:02 -34.02086 151.17230 4139 ft 229 kts 167°
2026-04-22 07:02 -34.03645 151.17771 5167 ft 234 kts 163°
2026-04-22 07:02 -34.05240 151.18365 6116 ft 246 kts 164°
2026-04-22 07:03 -34.06912 151.18928 7104 ft 248 kts 165°
2026-04-22 07:03 -34.08594 151.19473 8048 ft 262 kts 165°
2026-04-22 07:03 -34.10378 151.20064 9181 ft 268 kts 163°
2026-04-22 07:03 -34.12194 151.20673 10338 ft 275 kts 163°
2026-04-22 07:04 -34.14105 151.21315 11099 ft 294 kts 163°
2026-04-22 07:04 -34.16136 151.22015 11789 ft 313 kts 159°
2026-04-22 07:04 -34.18037 151.23415 12434 ft 331 kts 137°
2026-04-22 07:04 -34.19394 151.25558 13140 ft 347 kts 118°
2026-04-22 07:05 -34.20065 151.28387 14193 ft 357 kts 97°
2026-04-22 07:05 -34.20132 151.31413 15129 ft 364 kts 92°
2026-04-22 07:05 -34.20083 151.34457 16086 ft 370 kts 91°
2026-04-22 07:05 -34.20027 151.37460 16987 ft 374 kts 93°
2026-04-22 07:06 -34.20017 151.40625 17947 ft 378 kts 94°
2026-04-22 07:06 -34.20018 151.43827 18854 ft 383 kts 94°
2026-04-22 07:06 -34.19999 151.47075 19634 ft 388 kts 94°
2026-04-22 07:06 -34.19970 151.50356 20390 ft 394 kts 94°
2026-04-22 07:07 -34.19947 151.53695 21143 ft 399 kts 94°
2026-04-22 07:07 -34.19928 151.57025 21858 ft 404 kts 94°
2026-04-22 07:07 -34.19905 151.60447 22574 ft 409 kts 94°
2026-04-22 07:07 -34.19878 151.63911 23275 ft 414 kts 94°
2026-04-22 07:08 -34.19851 151.67413 23946 ft 419 kts 95°
2026-04-22 07:08 -34.19823 151.70961 24498 ft 424 kts 95°
2026-04-22 07:08 -34.19794 151.74552 25031 ft 429 kts 95°
2026-04-22 07:08 -34.19763 151.78186 25551 ft 434 kts 95°
2026-04-22 07:09 -34.19730 151.81856 26063 ft 439 kts 95°
2026-04-22 07:09 -34.19697 151.85558 26563 ft 443 kts 95°
2026-04-22 07:09 -34.19662 151.89256 27051 ft 448 kts 95°
2026-04-22 07:09 -34.19625 151.93039 27541 ft 453 kts 95°
2026-04-22 07:10 -34.19587 151.96861 27925 ft 459 kts 95°
2026-04-22 07:10 -34.19591 152.00739 27955 ft 456 kts 99°
2026-04-22 07:10 -34.20046 152.04474 27967 ft 448 kts 109°
2026-04-22 07:10 -34.20967 152.08048 27960 ft 442 kts 115°
2026-04-22 07:11 -34.21981 152.11568 27965 ft 442 kts 115°
2026-04-22 07:11 -34.23004 152.15072 27961 ft 442 kts 115°
2026-04-22 07:11 -34.24029 152.18574 27963 ft 441 kts 115°
2026-04-22 07:11 -34.25035 152.22037 27964 ft 441 kts 115°
2026-04-22 07:12 -34.26047 152.25537 27962 ft 441 kts 115°
2026-04-22 07:12 -34.27061 152.29036 27961 ft 440 kts 115°
2026-04-22 07:12 -34.28072 152.32524 27955 ft 440 kts 114°
2026-04-22 07:12 -34.29084 152.36023 27957 ft 439 kts 114°
2026-04-22 07:13 -34.30089 152.39506 27962 ft 439 kts 114°
2026-04-22 07:13 -34.30756 152.41818 27964 ft 439 kts 114°
2026-04-22 07:13 -34.32087 152.46435 27962 ft 438 kts 114°
2026-04-22 07:13 -34.33089 152.49921 27958 ft 438 kts 114°
2026-04-22 07:14 -34.34087 152.53393 27961 ft 437 kts 114°
2026-04-22 07:14 -34.34749 152.55700 27961 ft 437 kts 114°
2026-04-22 07:14 -34.36082 152.60346 27961 ft 437 kts 114°
2026-04-22 07:14 -34.37077 152.63824 27963 ft 436 kts 114°
2026-04-22 07:15 -34.37736 152.66127 27960 ft 436 kts 114°
2026-04-22 07:15 -34.38729 152.69601 27960 ft 437 kts 114°
2026-04-22 07:15 -34.39719 152.73072 27959 ft 437 kts 114°
2026-04-22 07:15 -34.40711 152.76551 27962 ft 437 kts 114°
2026-04-22 07:16 -34.41704 152.80041 27960 ft 436 kts 114°
2026-04-22 07:16 -34.43012 152.84642 27959 ft 436 kts 114°
2026-04-22 07:16 -34.43677 152.86984 27962 ft 435 kts 113°
2026-04-22 07:16 -34.44661 152.90452 27957 ft 435 kts 113°
2026-04-22 07:17 -34.45631 152.93879 27961 ft 434 kts 113°
2026-04-22 07:17 -34.46613 152.97350 27954 ft 434 kts 113°
2026-04-22 07:17 -34.47590 153.00805 27958 ft 433 kts 113°
2026-04-22 07:17 -34.48568 153.04269 27955 ft 434 kts 113°
2026-04-22 07:18 -34.49544 153.07733 27958 ft 433 kts 113°
2026-04-22 07:18 -34.50519 153.11196 27961 ft 433 kts 113°
2026-04-22 07:18 -34.51477 153.14603 27961 ft 432 kts 112°
2026-04-22 07:18 -34.52446 153.18055 27954 ft 432 kts 112°
2026-04-22 07:19 -34.53413 153.21499 27958 ft 431 kts 112°
2026-04-22 07:19 -34.54379 153.24948 27963 ft 431 kts 112°
2026-04-22 07:19 -34.55342 153.28393 27961 ft 431 kts 112°
2026-04-22 07:19 -34.56304 153.31834 27960 ft 431 kts 112°
2026-04-22 07:20 -34.57267 153.35284 27961 ft 431 kts 112°
2026-04-22 07:20 -34.58227 153.38728 27956 ft 430 kts 112°
2026-04-22 07:20 -34.59183 153.42162 27956 ft 430 kts 112°
2026-04-22 07:20 -34.60140 153.45601 27955 ft 429 kts 112°
2026-04-22 07:21 -34.61093 153.49032 27955 ft 429 kts 112°
2026-04-22 07:21 -34.62045 153.52466 27958 ft 429 kts 112°
2026-04-22 07:21 -34.62995 153.55896 27954 ft 428 kts 112°
2026-04-22 07:21 -34.63932 153.59279 27954 ft 428 kts 112°
2026-04-22 07:22 -34.64878 153.62704 27956 ft 427 kts 112°
2026-04-22 07:22 -34.65821 153.66121 27952 ft 427 kts 111°
2026-04-22 07:22 -34.66767 153.69553 27952 ft 427 kts 111°
2026-04-22 07:22 -34.67710 153.72975 27955 ft 427 kts 111°
2026-04-22 07:23 -34.68650 153.76394 27956 ft 426 kts 111°
2026-04-22 07:23 -34.69589 153.79813 27948 ft 426 kts 111°
2026-04-22 07:23 -34.70527 153.83233 27955 ft 426 kts 111°
2026-04-22 07:23 -34.71464 153.86652 27955 ft 426 kts 111°
2026-04-22 07:24 -34.72345 153.89871 27952 ft 426 kts 111°
2026-04-22 07:24 -34.72516 153.90498 27972 ft 425 kts 111°
2026-04-22 07:24 -34.73437 153.93868 27942 ft 425 kts 111°
2026-04-22 07:24 -34.74366 153.97273 27945 ft 424 kts 111°
2026-04-22 07:25 -34.75294 154.00677 27945 ft 424 kts 111°
2026-04-22 07:25 -34.76223 154.04090 27949 ft 424 kts 111°
2026-04-22 07:25 -34.77148 154.07492 27934 ft 424 kts 111°
2026-04-22 07:25 -34.78075 154.10904 27936 ft 424 kts 111°
2026-04-22 07:26 -34.78998 154.14311 27938 ft 423 kts 111°
2026-04-22 07:26 -34.79921 154.17714 27931 ft 423 kts 111°
2026-04-22 07:26 -34.80840 154.21111 27930 ft 422 kts 111°
2026-04-22 07:26 -34.81757 154.24506 27936 ft 422 kts 111°
2026-04-22 07:27 -34.82672 154.27898 27934 ft 421 kts 111°
2026-04-22 07:27 -34.83573 154.31238 27940 ft 421 kts 111°
2026-04-22 07:27 -34.84484 154.34623 27933 ft 421 kts 111°
2026-04-22 07:27 -34.85394 154.38007 27935 ft 421 kts 111°
2026-04-22 07:28 -34.87214 154.44792 27944 ft 421 kts 111°
2026-04-22 07:28 -34.88122 154.48182 27941 ft 420 kts 111°
2026-04-22 07:28 -34.89029 154.51570 27941 ft 420 kts 111°
2026-04-22 07:29 -34.89933 154.54954 27948 ft 421 kts 111°
2026-04-22 07:29 -34.90837 154.58342 27943 ft 421 kts 111°
2026-04-22 07:29 -34.91746 154.61752 27948 ft 428 kts 111°
2026-04-22 07:29 -34.92685 154.65272 27957 ft 442 kts 110°
2026-04-22 07:30 -34.93636 154.68847 27946 ft 455 kts 110°
2026-04-22 07:30 -34.94621 154.72565 27952 ft 467 kts 110°
2026-04-22 07:30 -34.95628 154.76366 27942 ft 474 kts 110°
2026-04-22 07:30 -34.96642 154.80200 27946 ft 475 kts 110°
2026-04-22 07:31 -34.97663 154.84060 27943 ft 483 kts 110°
2026-04-22 07:31 -34.98695 154.87969 27937 ft 483 kts 110°
2026-04-22 07:31 -34.99725 154.91880 27944 ft 486 kts 110°
2026-04-22 07:31 -35.00755 154.95795 27940 ft 484 kts 110°
2026-04-22 07:32 -35.01784 154.99711 27940 ft 485 kts 110°
2026-04-22 07:32 -35.02810 155.03619 27940 ft 484 kts 110°
2026-04-22 07:32 -35.04863 155.11469 28462 ft 485 kts 110°
2026-04-22 07:33 -35.05880 155.15366 28707 ft 488 kts 110°
2026-04-22 07:33 -35.06912 155.19321 29085 ft 489 kts 110°
2026-04-22 07:33 -35.07937 155.23260 29660 ft 486 kts 110°
2026-04-22 07:33 -35.08957 155.27187 30228 ft 483 kts 110°
2026-04-22 07:34 -35.09971 155.31091 30698 ft 481 kts 110°
2026-04-22 07:34 -35.10978 155.34976 31107 ft 480 kts 110°
2026-04-22 07:34 -35.11984 155.38864 31500 ft 480 kts 110°
2026-04-22 07:34 -35.12987 155.42748 31877 ft 480 kts 110°
2026-04-22 07:35 -35.13992 155.46643 32252 ft 480 kts 110°
2026-04-22 07:35 -35.14996 155.50537 32633 ft 480 kts 110°
2026-04-22 07:35 -35.15999 155.54439 32988 ft 481 kts 110°
2026-04-22 07:35 -35.16990 155.58295 33356 ft 481 kts 110°
2026-04-22 07:36 -35.17993 155.62208 33731 ft 482 kts 110°
2026-04-22 07:36 -35.18995 155.66118 34101 ft 482 kts 110°
2026-04-22 07:36 -35.19996 155.70035 34445 ft 483 kts 110°
2026-04-22 07:36 -35.21000 155.73965 34749 ft 484 kts 110°
2026-04-22 07:37 -35.22003 155.77898 35037 ft 485 kts 110°
2026-04-22 07:37 -35.23008 155.81849 35342 ft 486 kts 110°
2026-04-22 07:37 -35.24016 155.85812 35631 ft 487 kts 110°
2026-04-22 07:37 -35.25008 155.89721 35918 ft 489 kts 110°
2026-04-22 07:38 -35.26016 155.93702 36218 ft 490 kts 110°
2026-04-22 07:38 -35.27024 155.97683 36497 ft 491 kts 110°
2026-04-22 07:38 -35.28037 156.01693 36783 ft 493 kts 111°
2026-04-22 07:38 -35.29051 156.05713 37052 ft 494 kts 111°
2026-04-22 07:39 -35.30064 156.09738 37332 ft 496 kts 111°
2026-04-22 07:39 -35.31082 156.13788 37602 ft 498 kts 111°
2026-04-22 07:39 -35.32100 156.17842 37884 ft 499 kts 111°
2026-04-22 07:39 -35.33120 156.21914 38173 ft 501 kts 111°
2026-04-22 07:40 -35.34145 156.26009 38463 ft 502 kts 111°
2026-04-22 07:40 -35.35168 156.30103 38733 ft 503 kts 111°
2026-04-22 07:40 -35.36192 156.34210 38991 ft 505 kts 111°
2026-04-22 07:40 -35.37218 156.38329 39222 ft 506 kts 111°
2026-04-22 07:41 -35.39283 156.46643 39257 ft 510 kts 111°
2026-04-22 07:41 -35.41327 156.54900 39247 ft 509 kts 111°
2026-04-22 07:42 -35.43378 156.63209 39265 ft 509 kts 111°
2026-04-22 07:42 -35.45426 156.71536 39268 ft 509 kts 111°
2026-04-22 07:43 -35.47467 156.79859 39273 ft 510 kts 111°
2026-04-22 07:43 -35.49504 156.88199 39270 ft 509 kts 111°
2026-04-22 07:44 -35.51517 156.96461 39261 ft 508 kts 111°
2026-04-22 07:44 -35.53536 157.04778 39262 ft 508 kts 111°
2026-04-22 07:45 -35.55551 157.13107 39265 ft 509 kts 110°
2026-04-22 07:45 -35.57564 157.21454 39270 ft 509 kts 110°
2026-04-22 07:46 -35.59567 157.29793 39269 ft 508 kts 110°
2026-04-22 07:46 -35.61562 157.38120 39270 ft 507 kts 110°
2026-04-22 07:47 -35.63550 157.46445 39271 ft 508 kts 110°
2026-04-22 07:47 -35.65522 157.54736 39268 ft 508 kts 110°
2026-04-22 07:48 -35.67498 157.63071 39267 ft 508 kts 110°
2026-04-22 07:48 -35.69468 157.71409 39267 ft 507 kts 110°
2026-04-22 07:49 -35.71432 157.79750 39265 ft 507 kts 110°
2026-04-22 07:49 -35.73390 157.88094 39262 ft 506 kts 110°
2026-04-22 07:50 -35.75324 157.96366 39258 ft 501 kts 110°
2026-04-22 07:50 -35.77241 158.04583 39259 ft 502 kts 110°
2026-04-22 07:51 -35.78895 158.12947 39260 ft 504 kts 105°
2026-04-22 07:51 -35.80359 158.21390 39257 ft 504 kts 105°
2026-04-22 07:52 -35.81804 158.29851 39256 ft 504 kts 105°
2026-04-22 07:52 -35.83248 158.38296 39253 ft 504 kts 105°
2026-04-22 07:53 -35.84677 158.46709 39261 ft 504 kts 105°
2026-04-22 07:53 -35.86109 158.55176 39259 ft 503 kts 105°
2026-04-22 07:54 -35.87535 158.63641 39256 ft 504 kts 105°
2026-04-22 07:54 -35.88955 158.72117 39261 ft 505 kts 105°
2026-04-22 07:55 -35.90371 158.80600 39257 ft 504 kts 105°
2026-04-22 07:55 -35.91772 158.89035 39254 ft 504 kts 105°
2026-04-22 07:56 -35.93175 158.97520 39257 ft 504 kts 104°
2026-04-22 07:56 -35.94570 159.05993 39250 ft 504 kts 104°
2026-04-22 07:57 -35.95963 159.14499 39245 ft 505 kts 104°
2026-04-22 07:57 -35.97349 159.22999 39251 ft 504 kts 104°
2026-04-22 07:58 -35.98721 159.31449 39253 ft 504 kts 104°
2026-04-22 07:58 -36.00091 159.39933 39249 ft 504 kts 104°
2026-04-22 07:59 -36.01461 159.48451 39247 ft 505 kts 104°
2026-04-22 07:59 -36.02825 159.56978 39251 ft 506 kts 104°
2026-04-22 08:00 -36.03956 159.64077 39247 ft 506 kts 104°
2026-04-22 08:00 -36.05553 159.74141 39246 ft 519 kts 104°
2026-04-22 08:01 -36.06699 159.81412 39248 ft 520 kts 103°
2026-04-22 08:01 -36.08070 159.90142 39247 ft 516 kts 103°
2026-04-22 08:02 -36.09433 159.98858 39247 ft 515 kts 103°
2026-04-22 08:02 -36.10789 160.07584 39246 ft 516 kts 103°
2026-04-22 08:03 -36.12135 160.16278 39248 ft 517 kts 103°
2026-04-22 08:03 -36.13480 160.25020 39246 ft 517 kts 103°
2026-04-22 08:04 -36.14822 160.33780 39245 ft 517 kts 103°
2026-04-22 08:04 -36.16156 160.42530 39244 ft 517 kts 103°
2026-04-22 08:05 -36.17475 160.51232 39249 ft 518 kts 103°
2026-04-22 08:05 -36.18799 160.60008 39245 ft 518 kts 103°
2026-04-22 08:06 -36.20116 160.68789 39245 ft 518 kts 103°
2026-04-22 08:06 -36.21424 160.77554 39241 ft 517 kts 103°
2026-04-22 08:07 -36.22727 160.86320 39247 ft 518 kts 103°
2026-04-22 08:07 -36.24022 160.95099 39241 ft 518 kts 103°
2026-04-22 08:08 -36.25315 161.03889 39243 ft 518 kts 102°
2026-04-22 08:08 -36.26593 161.12632 39244 ft 519 kts 102°
2026-04-22 08:09 -36.27873 161.21440 39245 ft 520 kts 102°
2026-04-22 08:09 -36.29149 161.30265 39243 ft 520 kts 102°
2026-04-22 08:10 -36.30418 161.39090 39244 ft 520 kts 102°
2026-04-22 08:10 -36.31681 161.47912 39243 ft 519 kts 102°
2026-04-22 08:11 -36.32936 161.56744 39241 ft 519 kts 102°
2026-04-22 08:11 -36.34180 161.65532 39237 ft 520 kts 102°
2026-04-22 08:12 -36.35425 161.74378 39238 ft 520 kts 102°
2026-04-22 08:12 -36.36663 161.83225 39237 ft 521 kts 102°
2026-04-22 08:13 -36.37895 161.92088 39237 ft 521 kts 102°
2026-04-22 08:13 -36.39125 162.00973 39237 ft 522 kts 102°
2026-04-22 08:14 -36.40347 162.09856 39234 ft 521 kts 102°
2026-04-22 08:14 -36.41554 162.18686 39233 ft 520 kts 102°
2026-04-22 08:15 -36.42147 162.23057 39218 ft 505 kts 102°
2026-04-22 08:15 -36.42725 162.27312 39215 ft 498 kts 102°
2026-04-22 08:15 -36.43886 162.35865 39210 ft 502 kts 102°
2026-04-22 08:16 -36.45023 162.44352 39202 ft 488 kts 101°
2026-04-22 08:16 -36.46133 162.52614 39212 ft 486 kts 102°
2026-04-22 08:17 -36.47203 162.60697 39207 ft 464 kts 101°
2026-04-22 08:17 -36.47720 162.64604 39214 ft 453 kts 102°
2026-04-22 08:17 -36.48233 162.68450 39205 ft 448 kts 102°
2026-04-22 08:18 -36.49235 162.76064 39202 ft 447 kts 101°
2026-04-22 08:18 -36.50237 162.83709 39212 ft 447 kts 101°
2026-04-22 08:19 -36.51226 162.91301 39202 ft 448 kts 101°
2026-04-22 08:19 -36.52218 162.98952 39204 ft 448 kts 101°
2026-04-22 08:20 -36.53205 163.06612 39204 ft 448 kts 101°
2026-04-22 08:20 -36.54187 163.14276 39205 ft 449 kts 101°
2026-04-22 08:21 -36.55163 163.21941 39208 ft 449 kts 101°
2026-04-22 08:21 -36.56137 163.29620 39200 ft 449 kts 101°
2026-04-22 08:22 -36.57105 163.37304 39204 ft 450 kts 101°
2026-04-22 08:22 -36.58064 163.44954 39202 ft 450 kts 101°
2026-04-22 08:23 -36.59026 163.52647 39202 ft 450 kts 101°
2026-04-22 08:23 -36.59979 163.60355 39209 ft 450 kts 100°
2026-04-22 08:24 -36.60932 163.68073 39205 ft 450 kts 100°
2026-04-22 08:24 -36.61874 163.75747 39206 ft 451 kts 100°
2026-04-22 08:25 -36.62817 163.83473 39205 ft 451 kts 100°
2026-04-22 08:25 -36.63755 163.91198 39206 ft 451 kts 100°
2026-04-22 08:26 -36.64686 163.98930 39200 ft 451 kts 100°
2026-04-22 08:26 -36.65610 164.06620 39204 ft 451 kts 100°
2026-04-22 08:27 -36.66532 164.14349 39202 ft 451 kts 100°
2026-04-22 08:27 -36.67449 164.22074 39199 ft 451 kts 99°
2026-04-22 08:28 -36.68363 164.29814 39206 ft 451 kts 99°
2026-04-22 08:28 -36.69270 164.37552 39205 ft 451 kts 99°
2026-04-22 08:29 -36.70167 164.45237 39201 ft 451 kts 99°
2026-04-22 08:29 -36.71063 164.52970 39199 ft 450 kts 99°
2026-04-22 08:30 -36.71955 164.60708 39202 ft 450 kts 99°
2026-04-22 08:30 -36.72843 164.68448 39203 ft 450 kts 99°
2026-04-22 08:31 -36.73722 164.76175 39204 ft 450 kts 99°
2026-04-22 08:32 -36.75029 164.87722 39208 ft 450 kts 99°
2026-04-22 08:32 -36.75900 164.95479 39208 ft 450 kts 99°
2026-04-22 08:33 -36.76765 165.03231 39207 ft 451 kts 98°
2026-04-22 08:33 -36.77624 165.10979 39209 ft 451 kts 98°
2026-04-22 08:34 -36.78479 165.18731 39210 ft 451 kts 98°
2026-04-22 08:34 -36.79323 165.26433 39212 ft 451 kts 98°
2026-04-22 08:35 -36.80167 165.34185 39214 ft 451 kts 98°
2026-04-22 08:35 -36.81008 165.41954 39220 ft 451 kts 98°
2026-04-22 08:36 -36.81844 165.49727 39221 ft 452 kts 98°
2026-04-22 08:36 -36.82676 165.57511 39226 ft 452 kts 98°
2026-04-22 08:37 -36.83499 165.65263 39229 ft 453 kts 98°
2026-04-22 08:37 -36.84322 165.73060 39227 ft 452 kts 98°
2026-04-22 08:38 -36.85139 165.80847 39231 ft 452 kts 98°
2026-04-22 08:38 -36.85950 165.88643 39230 ft 452 kts 98°
2026-04-22 08:39 -36.86753 165.96392 39231 ft 453 kts 98°
2026-04-22 08:39 -36.87555 166.04194 39236 ft 453 kts 98°
2026-04-22 08:40 -36.88353 166.11999 39231 ft 452 kts 98°
2026-04-22 08:40 -36.89143 166.19787 39231 ft 451 kts 97°
2026-04-22 08:41 -36.89922 166.27521 39227 ft 451 kts 97°
2026-04-22 08:41 -36.90703 166.35318 39232 ft 452 kts 97°
2026-04-22 08:42 -36.91478 166.43110 39230 ft 452 kts 97°
2026-04-22 08:42 -36.92121 166.49607 39236 ft 452 kts 97°
2026-04-22 08:43 -36.92797 166.56491 39241 ft 460 kts 97°
2026-04-22 08:43 -36.93571 166.64418 39237 ft 458 kts 97°
2026-04-22 08:44 -36.94337 166.72320 39237 ft 458 kts 97°
2026-04-22 08:44 -36.95098 166.80227 39238 ft 458 kts 97°
2026-04-22 08:45 -36.95855 166.88143 39233 ft 459 kts 97°
2026-04-22 08:45 -36.96607 166.96069 39238 ft 458 kts 97°
2026-04-22 08:46 -36.97353 167.03986 39238 ft 458 kts 97°
2026-04-22 08:46 -36.98090 167.11868 39240 ft 459 kts 97°
2026-04-22 08:47 -36.98827 167.19804 39242 ft 459 kts 97°
2026-04-22 08:47 -36.99559 167.27743 39242 ft 459 kts 97°
2026-04-22 08:48 -37.00287 167.35696 39243 ft 459 kts 97°
2026-04-22 08:48 -37.00888 167.42310 39244 ft 460 kts 97°
2026-04-22 08:49 -37.01607 167.50283 39240 ft 461 kts 97°
2026-04-22 08:49 -37.02317 167.58206 39239 ft 461 kts 97°
2026-04-22 08:50 -37.03026 167.66183 39238 ft 461 kts 97°
2026-04-22 08:50 -37.03732 167.74188 39237 ft 462 kts 97°
2026-04-22 08:51 -37.04432 167.82190 39241 ft 462 kts 97°
2026-04-22 08:51 -37.05127 167.90198 39237 ft 463 kts 97°
2026-04-22 08:52 -37.05814 167.98173 39239 ft 463 kts 97°
2026-04-22 08:52 -37.06501 168.06211 39243 ft 464 kts 97°
2026-04-22 08:53 -37.07182 168.14247 39240 ft 464 kts 97°
2026-04-22 08:53 -37.07858 168.22294 39243 ft 464 kts 96°
2026-04-22 08:54 -37.08523 168.30275 39240 ft 464 kts 96°
2026-04-22 08:54 -37.09188 168.38318 39238 ft 464 kts 96°
2026-04-22 08:55 -37.09849 168.46377 39241 ft 464 kts 96°
2026-04-22 08:55 -37.10501 168.54392 39242 ft 465 kts 96°
2026-04-22 08:56 -37.11151 168.62457 39239 ft 465 kts 96°
2026-04-22 08:56 -37.11795 168.70514 39244 ft 465 kts 96°
2026-04-22 08:57 -37.12430 168.78530 39246 ft 465 kts 96°
2026-04-22 08:57 -37.13064 168.86607 39246 ft 466 kts 96°
2026-04-22 08:58 -37.13693 168.94691 39244 ft 466 kts 96°
2026-04-22 08:58 -37.14318 169.02782 39246 ft 466 kts 96°
2026-04-22 08:59 -37.14937 169.10884 39244 ft 467 kts 96°
2026-04-22 08:59 -37.15549 169.18961 39242 ft 468 kts 96°
2026-04-22 09:00 -37.16160 169.27093 39246 ft 468 kts 96°
2026-04-22 09:00 -37.16765 169.35223 39238 ft 468 kts 96°
2026-04-22 09:01 -37.17362 169.43325 39238 ft 469 kts 96°
2026-04-22 09:01 -37.17957 169.51484 39240 ft 469 kts 95°
2026-04-22 09:02 -37.18547 169.59649 39241 ft 470 kts 95°
2026-04-22 09:02 -37.19133 169.67818 39244 ft 471 kts 95°
2026-04-22 09:03 -37.19713 169.76001 39244 ft 471 kts 95°
2026-04-22 09:03 -37.20284 169.84141 39243 ft 472 kts 95°
2026-04-22 09:04 -37.20855 169.92348 39240 ft 472 kts 95°
2026-04-22 09:04 -37.21420 170.00564 39240 ft 472 kts 95°
2026-04-22 09:05 -37.21980 170.08785 39236 ft 473 kts 95°
2026-04-22 09:05 -37.22531 170.16963 39238 ft 473 kts 95°
2026-04-22 09:06 -37.23080 170.25186 39235 ft 474 kts 95°
2026-04-22 09:06 -37.23626 170.33457 39239 ft 474 kts 95°
2026-04-22 09:07 -37.24165 170.41713 39241 ft 475 kts 95°
2026-04-22 09:07 -37.24697 170.49949 39237 ft 482 kts 95°
2026-04-22 09:08 -37.25243 170.58502 39234 ft 498 kts 95°
2026-04-22 09:08 -37.25662 170.67324 39255 ft 514 kts 87°
2026-04-22 09:09 -37.25404 170.76380 39231 ft 520 kts 87°
2026-04-22 09:09 -37.25151 170.85453 39229 ft 521 kts 88°
2026-04-22 09:10 -37.24892 170.94493 39224 ft 521 kts 87°
2026-04-22 09:10 -37.24622 171.03600 39222 ft 522 kts 87°
2026-04-22 09:11 -37.24346 171.12724 39220 ft 522 kts 87°
2026-04-22 09:11 -37.24062 171.21842 39217 ft 523 kts 87°
2026-04-22 09:12 -37.23773 171.30906 39219 ft 523 kts 87°
2026-04-22 09:12 -37.23475 171.40038 39217 ft 524 kts 87°
2026-04-22 09:13 -37.23170 171.49171 39214 ft 524 kts 86°
2026-04-22 09:13 -37.22857 171.58330 39213 ft 524 kts 86°
2026-04-22 09:14 -37.22537 171.67482 39211 ft 525 kts 86°
2026-04-22 09:14 -37.22212 171.76582 39203 ft 525 kts 86°
2026-04-22 09:15 -37.21878 171.85745 39198 ft 525 kts 86°
2026-04-22 09:15 -37.21537 171.94900 39195 ft 525 kts 86°
2026-04-22 09:16 -37.21188 172.04056 39191 ft 525 kts 86°
2026-04-22 09:16 -37.20836 172.13153 39189 ft 525 kts 86°
2026-04-22 09:17 -37.20474 172.22299 39183 ft 525 kts 86°
2026-04-22 09:17 -37.20104 172.31460 39175 ft 525 kts 85°
2026-04-22 09:18 -37.19728 172.40604 39174 ft 525 kts 85°
2026-04-22 09:18 -37.19344 172.49772 39177 ft 526 kts 85°
2026-04-22 09:19 -37.18955 172.58883 39172 ft 527 kts 85°
2026-04-22 09:19 -37.18556 172.68071 39171 ft 527 kts 85°
2026-04-22 09:20 -37.18149 172.77277 39168 ft 527 kts 85°
2026-04-22 09:20 -37.17738 172.86412 39168 ft 528 kts 85°
2026-04-22 09:21 -37.17317 172.95613 39162 ft 528 kts 85°
2026-04-22 09:21 -37.16889 173.04813 38956 ft 526 kts 85°
2026-04-22 09:21 -37.16673 173.09383 38329 ft 525 kts 85°
2026-04-22 09:22 -37.16455 173.13952 37609 ft 525 kts 85°
2026-04-22 09:22 -37.16236 173.18530 36916 ft 525 kts 85°
2026-04-22 09:22 -37.16016 173.23097 36207 ft 524 kts 85°
2026-04-22 09:22 -37.15797 173.27600 35514 ft 524 kts 85°
2026-04-22 09:23 -37.15572 173.32165 34834 ft 523 kts 86°
2026-04-22 09:23 -37.15348 173.36700 34145 ft 521 kts 86°
2026-04-22 09:23 -37.15123 173.41236 33298 ft 519 kts 86°
2026-04-22 09:23 -37.14786 173.45730 32365 ft 518 kts 78°
2026-04-22 09:24 -37.14075 173.50167 31285 ft 520 kts 78°
2026-04-22 09:24 -37.13338 173.54610 30240 ft 521 kts 77°
2026-04-22 09:24 -37.12595 173.59066 29050 ft 521 kts 78°
2026-04-22 09:24 -37.11865 173.63518 27760 ft 522 kts 78°
2026-04-22 09:25 -37.11142 173.67933 26501 ft 523 kts 78°
2026-04-22 09:25 -37.10403 173.72399 25269 ft 522 kts 78°
2026-04-22 09:25 -37.09659 173.76855 24000 ft 522 kts 78°
2026-04-22 09:25 -37.08936 173.81195 22534 ft 495 kts 79°
2026-04-22 09:26 -37.08251 173.85309 21006 ft 471 kts 79°
2026-04-22 09:26 -37.07593 173.89252 19316 ft 456 kts 79°
2026-04-22 09:26 -37.06953 173.93076 17585 ft 443 kts 79°
2026-04-22 09:26 -37.06327 173.96798 15785 ft 430 kts 79°
2026-04-22 09:27 -37.05719 174.00408 14092 ft 416 kts 79°
2026-04-22 09:27 -37.05132 174.03900 12334 ft 402 kts 79°
2026-04-22 09:27 -37.04574 174.07223 10763 ft 388 kts 79°
2026-04-22 09:27 -37.04024 174.10472 9148 ft 375 kts 78°
2026-04-22 09:28 -37.03487 174.13622 7519 ft 363 kts 78°
2026-04-22 09:28 -37.02974 174.16655 5923 ft 350 kts 79°
2026-04-22 09:28 -37.02902 174.19607 4277 ft 334 kts 101°
2026-04-22 09:28 -37.03781 174.22190 3175 ft 312 kts 126°
2026-04-22 09:29 -37.05155 174.24062 3131 ft 282 kts 140°
2026-04-22 09:29 -37.06635 174.25674 3120 ft 279 kts 126°
2026-04-22 09:29 -37.07221 174.27850 3142 ft 259 kts 92°
2026-04-22 09:29 -37.06989 174.29989 3142 ft 249 kts 78°
2026-04-22 09:30 -37.06287 174.32022 3175 ft 262 kts 63°
2026-04-22 09:30 -37.05341 174.34005 3449 ft 268 kts 63°
2026-04-22 09:30 -37.04464 174.36080 3782 ft 269 kts 67°
2026-04-22 09:30 -37.03685 174.38225 4130 ft 271 kts 69°
2026-04-22 09:31 -37.02903 174.40379 4456 ft 273 kts 68°
2026-04-22 09:31 -37.02088 174.42531 4792 ft 274 kts 67°
2026-04-22 09:31 -37.01261 174.44692 5108 ft 276 kts 67°
2026-04-22 09:31 -37.00447 174.46847 5408 ft 278 kts 67°
2026-04-22 09:32 -36.99619 174.49045 5699 ft 280 kts 67°
2026-04-22 09:32 -36.98778 174.51265 5987 ft 282 kts 66°
2026-04-22 09:32 -36.97927 174.53513 6128 ft 289 kts 66°
2026-04-22 09:32 -36.97072 174.55768 6127 ft 288 kts 66°
2026-04-22 09:33 -36.96232 174.57973 6114 ft 271 kts 66°
2026-04-22 09:33 -36.95448 174.60037 6123 ft 264 kts 66°
2026-04-22 09:33 -36.94670 174.62092 6121 ft 260 kts 66°
2026-04-22 09:33 -36.93893 174.64138 6120 ft 260 kts 66°
2026-04-22 09:34 -36.93118 174.66175 6124 ft 259 kts 66°
2026-04-22 09:34 -36.92340 174.68215 6122 ft 260 kts 66°
2026-04-22 09:34 -36.91559 174.70268 6121 ft 261 kts 66°
2026-04-22 09:35 -36.90060 174.74402 6116 ft 259 kts 77°
2026-04-22 09:35 -36.89774 174.76588 6126 ft 260 kts 82°
2026-04-22 09:35 -36.89443 174.78808 6130 ft 260 kts 81°
2026-04-22 09:35 -36.89109 174.81025 6127 ft 260 kts 82°
2026-04-22 09:36 -36.88791 174.83246 6051 ft 257 kts 82°
2026-04-22 09:36 -36.88483 174.85413 5838 ft 248 kts 82°
2026-04-22 09:36 -36.88184 174.87494 5641 ft 239 kts 82°
2026-04-22 09:36 -36.87893 174.89522 5358 ft 235 kts 83°
2026-04-22 09:37 -36.87702 174.90847 5159 ft 233 kts 83°
2026-04-22 09:37 -36.87415 174.92837 4849 ft 231 kts 83°
2026-04-22 09:37 -36.87132 174.94799 4553 ft 228 kts 83°
2026-04-22 09:37 -36.86851 174.96743 4240 ft 226 kts 84°
2026-04-22 09:38 -36.87004 174.99229 4104 ft 219 kts 114°
2026-04-22 09:38 -36.87508 175.00308 4094 ft 213 kts 131°
2026-04-22 09:38 -36.88652 175.01429 3878 ft 211 kts 155°
2026-04-22 09:38 -36.90011 175.02038 3495 ft 202 kts 160°
2026-04-22 09:39 -36.91350 175.02604 3181 ft 205 kts 160°
2026-04-22 09:39 -36.92753 175.02710 3131 ft 214 kts 184°
2026-04-22 09:39 -36.94086 175.02018 3120 ft 195 kts 208°
2026-04-22 09:39 -36.94941 175.00797 3118 ft 184 kts 229°
2026-04-22 09:40 -36.95473 174.99329 3122 ft 184 kts 242°
2026-04-22 09:40 -36.95912 174.97819 2933 ft 183 kts 242°
2026-04-22 09:40 -36.96322 174.96338 2701 ft 182 kts 243°
2026-04-22 09:40 -36.96737 174.94827 2447 ft 185 kts 242°
2026-04-22 09:41 -36.97154 174.93308 2196 ft 184 kts 243°
2026-04-22 09:41 -36.97567 174.91790 1939 ft 183 kts 241°
2026-04-22 09:41 -36.97985 174.90317 1689 ft 176 kts 241°
2026-04-22 09:41 -36.98394 174.88854 1449 ft 175 kts 243°
2026-04-22 09:42 -36.98763 174.87468 1213 ft 160 kts 244°
2026-04-22 09:42 -36.99124 174.86182 1000 ft 153 kts 243°
2026-04-22 09:42 -36.99472 174.84943 786 ft 154 kts 245°
2026-04-22 09:42 -36.99802 174.83698 584 ft 151 kts 247°
2026-04-22 09:43 -37.00148 174.82479 380 ft 147 kts 246°
2026-04-22 09:43 -37.00489 174.81223 180 ft 147 kts 248°
2026-04-22 09:43 -37.00833 174.80001 42 ft 138 kts 247°
2026-04-22 09:43 -37.01061 174.79195 32 ft 63 kts 261°
2026-04-22 09:44 -37.01069 174.78938 33 ft 0 kts 277°
2026-04-22 09:44 -37.01046 174.78755 35 ft 31 kts 283°
2026-04-22 09:44 -37.01031 174.78719 36 ft 0 kts 307°
2026-04-22 09:49 -37.01028 174.78712 36 ft 7 kts 298°
2026-04-22 09:49 -37.00981 174.78550 36 ft 25 kts 304°
2026-04-22 09:49 -37.00930 174.78355 36 ft 23 kts 290°
2026-04-22 09:50 -37.00924 174.78165 35 ft 22 kts 269°
2026-04-22 09:50 -37.00875 174.78091 32 ft 2 kts 18°
2026-04-22 09:50 -37.00844 174.78132 34 ft 9 kts 43°
2026-04-22 09:50 -37.00816 174.78162 34 ft 0 kts 41°